CW1177 Weather Reports


Display with metric or nautical units.
time (UTC)temp
F
wind
direction
speed
MPH
gust
MPH
rain 1hr
in
rain 24hr
in
rain mn
in
humidity
%
barometer
mb
20260506051038 59 0 0.0 0.0 0.00 0.01 0.00 52 1015.2
20260506050537 59 0 0.0 0.0 0.00 0.01 0.00 52 1015.2
20260506045037 60 0 0.0 0.0 0.00 0.35 0.00 52 1014.7
20260506044554 60 0 0.0 0.0 0.00 0.35 0.00 52 1014.7
20260506044036 60 0 0.0 0.0 0.00 0.35 0.00 52 1014.8
20260506043536 61 0 0.0 0.0 0.00 0.35 0.00 53 1014.6
20260506043047 61 0 0.0 0.0 0.00 0.35 0.00 54 1014.6
20260506042538 61 0 0.0 0.0 0.00 0.35 0.00 54 1014.6
20260506042039 61 0 0.0 0.0 0.00 0.35 0.00 53 1014.7
20260506041552 61 0 0.0 0.0 0.00 0.35 0.00 52 1014.6
20260506041035 61 0 0.0 0.0 0.00 0.35 0.00 55 1014.4
20260506040538 62 0 0.0 0.0 0.00 0.35 0.00 55 1014.5
20260506040055 62 0 0.0 0.0 0.00 0.35 0.00 54 1014.4
20260506035537 62 0 0.0 0.0 0.00 0.35 0.00 52 1014.4
20260506035039 62 0 0.0 0.0 0.00 0.35 0.00 52 1014.1
20260506034603 62 0 0.0 0.0 0.00 0.35 0.00 51 1014.0
20260506034037 62 0 0.0 0.0 0.00 0.35 0.00 50 1013.8
20260506033536 62 0 0.0 0.0 0.00 0.35 0.00 49 1013.5
20260506033049 62 0 0.0 0.0 0.00 0.35 0.00 50 1013.5
20260506032539 62 0 0.0 0.0 0.00 0.35 0.00 49 1013.4
20260506032037 63 0 0.0 0.0 0.00 0.35 0.00 50 1013.4
20260506031547 63 0 0.0 0.0 0.00 0.35 0.00 50 1013.4
20260506031038 63 0 0.0 0.0 0.00 0.35 0.00 50 1013.3
20260506030538 63 0 0.0 0.0 0.00 0.35 0.00 50 1013.2
20260506030048 63 0 0.0 0.0 0.00 0.35 0.00 50 1013.2
20260506025536 64 0 0.0 0.0 0.00 0.52 0.00 50 1013.2
20260506025037 64 0 0.0 0.0 0.00 0.52 0.00 49 1013.2
20260506024606 64 0 0.0 0.0 0.00 0.52 0.00 48 1013.0
20260506024037 65 0 0.0 0.0 0.00 0.52 0.00 47 1013.0
20260506023538 65 0 0.0 0.0 0.00 0.52 0.00 47 1012.9
20260506023051 66 0 0.0 0.0 0.00 0.52 0.00 46 1012.8
20260506022539 66 0 0.0 0.0 0.00 0.52 0.00 44 1012.8
20260506022037 67 0 0.0 0.0 0.00 0.52 0.00 43 1012.6
20260506021553 67 0 0.0 0.0 0.00 0.52 0.00 43 1012.5
20260506021037 67 0 0.0 0.0 0.00 0.52 0.00 41 1012.5
20260506020536 68 0 0.0 0.0 0.00 0.52 0.00 39 1012.5
20260506020048 68 0 0.0 0.0 0.00 0.52 0.00 39 1012.4
20260506015537 68 0 0.0 0.0 0.00 0.52 0.00 38 1012.5
20260506015037 69 0 0.0 0.0 0.00 0.52 0.00 36 1012.4
20260506014908 69 0 0.0 0.0 0.00 0.52 0.00 36 1012.4
20260506014040 69 0 0.0 0.0 0.00 0.52 0.00 36 1012.4
20260506013539 69 0 0.0 0.0 0.00 0.52 0.00 37 1012.3
20260506013102 69 0 0.0 0.0 0.00 0.52 0.00 34 1012.5
20260506012538 70 0 0.0 0.0 0.00 0.52 0.00 35 1012.4
20260506012037 70 0 0.0 0.0 0.00 0.52 0.00 34 1012.5
20260506011602 70 0 0.0 0.0 0.00 0.52 0.00 36 1012.5
20260506011037 70 0 0.0 0.0 0.00 0.52 0.00 33 1012.5
20260506010537 70 0 0.0 0.0 0.00 0.52 0.00 34 1012.4
20260506010059 70 0 0.0 0.0 0.00 0.52 0.00 33 1012.4
20260506005536 70 0 0.0 0.0 0.00 0.52 0.00 34 1012.5
20260506005037 69 0 0.0 0.0 0.00 0.52 0.00 35 1012.5
20260506004549 69 0 0.0 0.0 0.00 0.52 0.00 35 1012.5
20260506004037 69 0 0.0 0.0 0.00 0.52 0.00 35 1012.5
20260506003537 68 0 0.0 0.0 0.00 0.52 0.00 36 1012.5
20260506003048 68 0 0.0 0.0 0.00 0.52 0.00 39 1012.5
20260506002828 68 0 0.0 0.0 0.00 0.52 0.00 38 1012.5
20260506002039 69 0 0.0 0.0 0.00 0.52 0.00 37 1012.5
20260506001548 69 0 0.0 0.0 0.00 0.52 0.00 38 1012.5
20260506001036 70 0 0.0 0.0 0.00 0.52 0.00 37 1012.6
20260506000537 70 0 0.0 0.0 0.00 0.52 0.00 36 1012.5
20260506000058 70 0 0.0 0.0 0.00 0.52 0.00 39 1012.5
20260505235536 70 0 0.0 0.0 0.00 0.52 0.00 39 1012.6
20260505235145 69 0 0.0 0.0 0.00 0.52 0.00 40 1012.5
20260505234637 69 0 0.0 0.0 0.00 0.52 0.00 39 1012.6
20260505234037 69 0 0.0 0.0 0.00 0.52 0.00 38 1012.6
20260505233536 69 0 0.0 0.0 0.00 0.52 0.00 41 1012.5
20260505233053 68 0 0.0 0.0 0.00 0.52 0.00 38 1012.7
20260505232537 68 0 0.0 0.0 0.00 0.52 0.00 41 1012.7
20260505232037 68 0 0.0 0.0 0.00 0.52 0.00 40 1012.7
20260505231651 68 0 0.0 0.0 0.00 0.52 0.00 38 1012.7
20260505231041 69 0 0.0 0.0 0.00 0.52 0.00 40 1012.7
20260505230556 69 0 0.0 0.0 0.00 0.52 0.00 38 1012.7
20260505230104 68 0 0.0 0.0 0.00 0.52 0.00 39 1012.8
20260505225539 68 0 0.0 0.0 0.00 0.54 0.00 39 1012.8
20260505225039 68 0 0.0 0.0 0.00 0.54 0.00 41 1012.8
20260505224554 68 0 0.0 0.0 0.00 0.54 0.00 42 1012.9
20260505224043 67 0 0.0 0.0 0.00 0.54 0.00 41 1012.8
20260505223538 67 0 0.0 6.0 0.00 0.54 0.00 41 1013.0
20260505223108 67 0 0.0 6.0 0.00 0.54 0.00 41 1013.0
20260505222538 67 0 0.0 2.0 0.00 0.54 0.00 43 1013.1
20260505222037 66 0 0.0 0.0 0.00 0.54 0.00 41 1013.2
20260505221551 66 0 0.0 0.0 0.00 0.54 0.00 43 1013.4
20260505221042 66 0 0.0 0.0 0.00 0.54 0.00 44 1013.3
20260505220539 66 0 0.0 0.0 0.00 0.54 0.00 42 1013.4
20260505220048 66 0 0.0 0.0 0.00 0.54 0.00 46 1013.4
20260505215538 65 0 0.0 0.0 0.00 0.54 0.00 44 1013.4
20260505215038 65 0 0.0 0.0 0.00 0.54 0.00 43 1013.5
20260505214551 66 0 0.0 0.0 0.00 0.54 0.00 44 1013.6
20260505214040 66 0 0.0 0.0 0.00 0.54 0.00 45 1013.6
20260505213537 66 0 0.0 0.0 0.00 0.54 0.00 47 1013.5
20260505213057 66 0 0.0 0.0 0.00 0.54 0.00 47 1013.7
20260505212538 65 0 0.0 0.0 0.00 0.54 0.00 46 1013.7
20260505212038 65 0 0.0 0.0 0.00 0.54 0.00 45 1013.8
20260505211550 65 0 0.0 0.0 0.00 0.54 0.00 50 1013.8
20260505211038 64 0 0.0 0.0 0.00 0.54 0.00 49 1013.7
20260505210540 64 0 0.0 0.0 0.00 0.54 0.00 54 1013.8
20260505210054 64 0 0.0 0.0 0.00 0.54 0.00 48 1013.9
20260505205542 64 0 0.0 0.0 0.00 0.54 0.00 50 1013.9
20260505205043 63 0 0.0 0.0 0.00 0.54 0.00 50 1013.9
20260505204553 63 0 0.0 0.0 0.00 0.54 0.00 53 1013.9
20260505204043 63 0 0.0 0.0 0.00 0.54 0.00 52 1013.9
20260505203544 62 0 0.0 0.0 0.00 0.54 0.00 53 1013.9
20260505203100 62 0 0.0 0.0 0.00 0.54 0.00 52 1014.0
20260505202543 61 0 0.0 0.0 0.00 0.54 0.00 54 1014.0
20260505202042 61 0 0.0 0.0 0.00 0.54 0.00 53 1014.1
20260505201554 61 0 0.0 0.0 0.00 0.54 0.00 53 1014.1
20260505201043 61 0 0.0 0.0 0.00 0.54 0.00 52 1014.1
20260505200543 61 0 0.0 0.0 0.00 0.54 0.00 51 1014.1
20260505200048 62 0 0.0 0.0 0.00 0.54 0.00 51 1014.1
20260505195544 62 0 0.0 0.0 0.00 0.54 0.00 52 1014.1
20260505195042 62 0 0.0 0.0 0.00 0.54 0.00 58 1014.2
20260505194610 61 0 0.0 0.0 0.00 0.54 0.00 53 1014.2
20260505194043 61 0 0.0 0.0 0.00 0.54 0.00 58 1014.2
20260505193548 61 0 0.0 0.0 0.00 0.54 0.00 57 1014.2
20260505193049 61 0 0.0 0.0 0.00 0.54 0.00 56 1014.3
20260505192542 61 0 0.0 0.0 0.00 0.54 0.00 61 1014.2
20260505192042 60 0 0.0 0.0 0.00 0.54 0.00 60 1014.2
20260505191550 59 0 0.0 0.0 0.00 0.54 0.00 59 1014.2
20260505191044 59 0 0.0 0.0 0.00 0.54 0.00 63 1014.2
20260505190543 58 0 0.0 0.0 0.00 0.54 0.00 63 1014.2
20260505190053 57 0 0.0 0.0 0.00 0.54 0.00 62 1014.2
20260505185544 58 0 0.0 0.0 0.00 0.54 0.00 61 1014.2
20260505185043 58 0 0.0 0.0 0.00 0.54 0.00 62 1014.2
20260505184551 58 0 0.0 0.0 0.00 0.54 0.00 63 1014.2
20260505184043 58 0 0.0 0.0 0.00 0.54 0.00 65 1014.1
20260505183545 57 0 0.0 0.0 0.00 0.54 0.00 62 1014.2
20260505183101 57 0 0.0 0.0 0.00 0.54 0.00 65 1014.2
20260505182542 56 0 0.0 0.0 0.00 0.54 0.00 65 1014.2
20260505182042 56 0 0.0 0.0 0.00 0.54 0.00 65 1014.2
20260505181551 55 0 0.0 0.0 0.00 0.54 0.00 66 1014.2
20260505181042 55 0 0.0 0.0 0.00 0.54 0.00 66 1014.2
20260505180542 55 0 0.0 0.0 0.00 0.54 0.00 68 1014.1
20260505180054 54 0 0.0 0.0 0.00 0.54 0.00 69 1014.1
20260505175902 54 0 0.0 0.0 0.00 0.54 0.00 68 1014.2
20260505175636 54 0 0.0 0.0 0.00 0.54 0.00 68 1014.1
20260505175605 54 0 0.0 0.0 0.00 0.54 0.00 68 1014.1
20260505175503 54 0 0.0 0.0 0.00 0.54 0.00 68 1014.1
20260505175411 54 0 0.0 0.0 0.00 0.54 0.00 68 1014.1
20260505175336 54 0 0.0 0.0 0.00 0.54 0.00 68 1014.1
20260505175208 54 0 0.0 0.0 0.00 0.54 0.00 68 1014.1
20260505175112 54 0 0.0 0.0 0.00 0.54 0.00 68 1014.1
20260505175038 54 0 0.0 0.0 0.00 0.54 0.00 68 1014.1
20260505174557 54 0 0.0 0.0 0.00 0.54 0.00 68 1014.1
20260505174038 54 0 0.0 0.0 0.00 0.54 0.00 68 1014.0
20260505173534 54 0 0.0 0.0 0.00 0.54 0.00 69 1014.0
20260505173052 54 0 0.0 0.0 0.00 0.54 0.00 69 1013.9
20260505172534 54 0 0.0 0.0 0.00 0.54 0.00 71 1013.8
20260505172154 53 0 0.0 0.0 0.00 0.54 0.00 71 1013.8
20260505165538 52 0 0.0 0.0 0.00 0.54 0.00 74 1013.7
20260505165039 52 0 0.0 0.0 0.00 0.54 0.00 75 1013.7
20260505164558 51 0 0.0 0.0 0.00 0.54 0.00 76 1013.6
20260505164039 51 0 0.0 0.0 0.00 0.54 0.00 75 1013.7
20260505163538 51 0 0.0 0.0 0.00 0.54 0.00 77 1013.6
20260505163057 50 0 0.0 0.0 0.00 0.54 0.00 76 1013.5
20260505162543 50 0 0.0 0.0 0.00 0.54 0.00 77 1013.5
20260505162038 50 0 0.0 0.0 0.00 0.54 0.00 78 1013.5
20260505161548 50 0 0.0 0.0 0.00 0.54 0.00 78 1013.5
20260505161038 49 0 0.0 0.0 0.00 0.54 0.00 78 1013.5
20260505160539 49 0 0.0 0.0 0.00 0.54 0.00 79 1013.4
20260505153105 47 0 0.0 0.0 0.00 0.54 0.00 81 1013.2
20260505152542 47 0 0.0 0.0 0.00 0.54 0.00 82 1013.2
20260505152038 47 0 0.0 0.0 0.00 0.54 0.00 82 1013.1
20260505151555 47 0 0.0 0.0 0.00 0.54 0.00 83 1013.1
20260505151038 46 0 0.0 0.0 0.00 0.54 0.00 83 1013.0
20260505150540 46 0 0.0 0.0 0.00 0.54 0.00 83 1013.0
20260505140541 45 0 0.0 0.0 0.00 0.54 0.00 84 1012.4
20260505140104 45 0 0.0 0.0 0.00 0.54 0.00 84 1012.3
20260505125040 44 0 0.0 0.0 0.00 0.54 0.00 83 1011.4
20260505124548 44 0 0.0 0.0 0.00 0.54 0.00 84 1011.4
20260505124039 44 0 0.0 0.0 0.00 0.54 0.00 84 1011.4
20260505123537 44 0 0.0 0.0 0.00 0.54 0.00 84 1011.4
20260505123104 44 0 0.0 0.0 0.00 0.54 0.00 84 1011.4
20260505122542 44 0 0.0 0.0 0.00 0.54 0.00 84 1011.3
20260505122038 44 0 0.0 0.0 0.00 0.54 0.00 84 1011.3
20260505121553 44 0 0.0 0.0 0.00 0.54 0.00 84 1011.4
20260505121038 44 0 0.0 0.0 0.00 0.54 0.00 84 1011.5
20260505120538 43 0 0.0 0.0 0.00 0.54 0.00 84 1011.5
20260505120049 43 0 0.0 0.0 0.00 0.54 0.00 84 1011.5
20260505115542 43 0 0.0 0.0 0.00 0.54 0.00 84 1011.5
20260505115041 43 0 0.0 0.0 0.00 0.54 0.00 84 1011.5
20260505114548 43 0 0.0 0.0 0.00 0.54 0.00 84 1011.3
20260505114038 43 0 0.0 0.0 0.00 0.54 0.00 84 1011.4
20260505113538 43 0 0.0 0.0 0.00 0.54 0.00 83 1011.5
20260505113047 43 0 0.0 0.0 0.00 0.54 0.00 83 1011.4
20260505112538 43 0 0.0 0.0 0.00 0.54 0.00 83 1011.4
20260505112037 43 0 0.0 0.0 0.00 0.54 0.00 83 1011.3
20260505111553 44 0 0.0 0.0 0.00 0.54 0.00 83 1011.3
20260505111038 44 0 0.0 0.0 0.00 0.54 0.00 83 1011.4
20260505110537 44 0 0.0 0.0 0.00 0.54 0.00 83 1011.5
20260505102037 43 0 0.0 0.0 0.00 0.54 0.00 84 1011.6
20260505101548 43 0 0.0 0.0 0.00 0.54 0.00 84 1011.6
20260505101042 43 0 0.0 0.0 0.00 0.54 0.00 84 1011.7
20260505100540 43 0 0.0 0.0 0.00 0.54 0.00 84 1011.7
20260505100052 43 0 0.0 0.0 0.00 0.54 0.00 84 1011.6
20260505095541 43 0 0.0 0.0 0.00 0.54 0.00 84 1011.6
20260505095037 43 0 0.0 0.0 0.00 0.54 0.00 84 1011.7
20260505094553 43 0 0.0 0.0 0.00 0.54 0.00 84 1011.7
20260505094037 43 0 0.0 0.0 0.00 0.54 0.00 84 1011.7
20260505093538 43 0 0.0 0.0 0.00 0.54 0.00 84 1011.7
20260505093048 43 0 0.0 0.0 0.00 0.54 0.00 84 1011.7
20260505092538 43 0 0.0 0.0 0.00 0.54 0.00 84 1011.9
20260505092037 43 0 0.0 0.0 0.00 0.54 0.00 84 1011.9
20260505091558 43 0 0.0 0.0 0.00 0.54 0.00 84 1011.8
20260505091042 43 0 0.0 0.0 0.00 0.54 0.00 83 1011.9
20260505090542 43 0 0.0 0.0 0.00 0.54 0.00 83 1011.8
20260505090058 43 0 0.0 0.0 0.00 0.54 0.00 83 1011.8
20260505085538 43 0 0.0 0.0 0.00 0.54 0.00 83 1011.8
20260505085038 43 0 0.0 0.0 0.00 0.54 0.00 83 1012.0
20260505084551 43 0 0.0 0.0 0.00 0.54 0.00 83 1011.9
20260505084040 43 0 0.0 0.0 0.00 0.54 0.00 83 1012.0
20260505083603 43 0 0.0 9.0 0.00 0.54 0.00 83 1012.2
20260505083052 43 0 0.0 9.0 0.00 0.54 0.00 83 1012.3
20260505082539 43 294 4.0 14.0 0.00 0.54 0.00 83 1012.4
20260505082037 43 291 3.0 14.0 0.00 0.54 0.00 83 1012.4
20260505081558 43 296 4.0 11.0 0.00 0.54 0.00 83 1012.4
20260505081038 43 278 4.0 11.0 0.00 0.54 0.00 83 1012.4
20260505080541 43 262 3.0 8.0 0.00 0.54 0.00 83 1012.5
20260505080049 43 269 2.0 6.0 0.00 0.54 0.00 83 1012.5
20260505075537 43 265 1.0 6.0 0.00 0.54 0.00 83 1012.7
20260505075038 43 0 1.0 7.0 0.00 0.54 0.00 83 1012.7
20260505074607 43 263 2.0 7.0 0.00 0.54 0.00 83 1012.6
20260505074038 43 278 1.0 4.0 0.00 0.54 0.00 84 1012.5
20260505073538 43 275 2.0 4.0 0.00 0.54 0.00 83 1012.3
20260505073052 43 274 1.0 6.0 0.00 0.54 0.00 83 1012.5
20260505072538 43 271 1.0 6.0 0.00 0.54 0.00 83 1012.8
20260505072037 43 268 1.0 8.0 0.00 0.54 0.00 83 1012.7
20260505071547 43 268 2.0 8.0 0.00 0.54 0.00 83 1012.8
20260505071038 43 263 3.0 8.0 0.00 0.54 0.00 83 1012.6
20260505070538 43 263 1.0 7.0 0.00 0.54 0.00 82 1012.4
20260505070052 43 265 3.0 8.0 0.00 0.54 0.00 82 1012.4
20260505065538 44 264 3.0 8.0 0.00 0.54 0.54 82 1012.2
20260505065037 44 262 3.0 8.0 0.00 0.54 0.54 82 1012.2
20260505064551 44 255 4.0 10.0 0.00 0.54 0.54 82 1012.2
20260505064037 44 268 4.0 10.0 0.00 0.54 0.54 83 1012.4
20260505063538 44 250 5.0 17.0 0.00 0.54 0.54 83 1012.3
20260505063058 44 259 7.0 17.0 0.00 0.54 0.54 83 1011.8
20260505062537 43 267 3.0 11.0 0.00 0.54 0.54 84 1011.5
20260505062037 43 309 4.0 11.0 0.00 0.54 0.54 84 1011.6
20260505061617 43 334 3.0 11.0 0.00 0.54 0.54 84 1011.6
20260505061037 43 317 4.0 13.0 0.00 0.54 0.54 84 1011.5
20260505060539 43 315 5.0 16.0 0.00 0.54 0.54 84 1011.5
20260505060055 43 331 3.0 16.0 0.01 0.54 0.54 83 1011.6
20260505055538 44 293 5.0 16.0 0.01 0.54 0.54 83 1011.5
20260505055040 44 310 5.0 14.0 0.01 0.54 0.54 83 1011.6